When you browse on this site, cookies collect data to enhance your experience and personalize the content and advertising you see.
Visit our Privacy Policy to learn more. By continuing to use the site, you agree to this use of cookies and data.
  • In Österreich
  • Länderverzeichnis
  • Für 7 Tage
  • Wassertemperatur
  • Wetterkarte
  • News
  • Widgets
  • user-avatar
    Anmelden

    Stündliche Wetter Kamyshka

    Heute, 3 Juni, Mittwoch

    Zeit Temperatur Niederschläge Wind Luftdruck Luftfeuchtigkeit
    00:00 +15°C° 0 mm 5 m/S 747 mmHg 75%
    01:00 +14°C° 0 mm 5 m/S 747 mmHg 74%
    02:00 +14°C° 0 mm 4 m/S 747 mmHg 76%
    03:00 +14°C° 0 mm 4 m/S 747 mmHg 78%
    04:00 +13°C° 0 mm 4 m/S 747 mmHg 80%
    05:00 +14°C° 0 mm 4 m/S 747 mmHg 79%
    06:00 +17°C° 0 mm 4 m/S 747 mmHg 78%
    07:00 +17°C° 0 mm 5 m/S 747 mmHg 76%
    08:00 +19°C° 0 mm 5 m/S 747 mmHg 73%
    09:00 +21°C° 0 mm 5 m/S 747 mmHg 69%
    10:00 +23°C° 0 mm 5 m/S 748 mmHg 65%
    11:00 +25°C° 0 mm 5 m/S 747 mmHg 58%
    12:00 +26°C° 0 mm 5 m/S 747 mmHg 51%
    13:00 +27°C° 0 mm 5 m/S 747 mmHg 45%
    14:00 +27°C° 0 mm 5 m/S 747 mmHg 45%
    15:00 +27°C° 0 mm 5 m/S 747 mmHg 44%
    16:00 +28°C° 0 mm 4 m/S 747 mmHg 44%
    17:00 +26°C° 0 mm 5 m/S 747 mmHg 50%
    18:00 +25°C° 0 mm 5 m/S 747 mmHg 56%
    19:00 +23°C° 0 mm 5 m/S 746 mmHg 63%
    20:00 +22°C° 0 mm 5 m/S 746 mmHg 65%
    21:00 +21°C° 0 mm 6 m/S 747 mmHg 68%
    22:00 +19°C° 0 mm 6 m/S 747 mmHg 71%
    23:00 +19°C° 0 mm 6 m/S 747 mmHg 72%

    Morgen, 4 Juni, Donnerstag

    Zeit Temperatur Niederschläge Wind Luftdruck Luftfeuchtigkeit
    00:00 +19°C° 0 mm 6 m/S 746 mmHg 73%
    01:00 +19°C° 0 mm 6 m/S 746 mmHg 74%
    02:00 +17°C° 0 mm 7 m/S 746 mmHg 71%
    03:00 +17°C° 0 mm 7 m/S 746 mmHg 68%
    04:00 +17°C° 0 mm 7 m/S 746 mmHg 65%
    05:00 +17°C° 0 mm 8 m/S 746 mmHg 66%
    06:00 +17°C° 0 mm 8 m/S 746 mmHg 66%
    07:00 +17°C° 0 mm 8 m/S 746 mmHg 67%
    08:00 +18°C° 0 mm 8 m/S 746 mmHg 66%
    09:00 +18°C° 0 mm 8 m/S 747 mmHg 65%
    10:00 +20°C° 0 mm 8 m/S 747 mmHg 63%
    11:00 +20°C° 0 mm 8 m/S 747 mmHg 62%
    12:00 +21°C° 0 mm 8 m/S 747 mmHg 61%
    13:00 +22°C° 0 mm 8 m/S 747 mmHg 60%
    14:00 +22°C° 0 mm 7 m/S 747 mmHg 60%
    15:00 +22°C° 0 mm 7 m/S 747 mmHg 60%
    16:00 +22°C° 0 mm 7 m/S 747 mmHg 59%
    17:00 +22°C° 0 mm 6 m/S 747 mmHg 61%
    18:00 +21°C° 0 mm 5 m/S 747 mmHg 63%
    19:00 +20°C° 0 mm 5 m/S 747 mmHg 65%
    20:00 +20°C° 0 mm 5 m/S 747 mmHg 63%
    21:00 +19°C° 0 mm 4 m/S 748 mmHg 62%
    22:00 +18°C° 0 mm 4 m/S 748 mmHg 61%
    23:00 +17°C° 0 mm 5 m/S 748 mmHg 59%

    übermorgen, 5 Juni, Freitag

    Zeit Temperatur Niederschläge Wind Luftdruck Luftfeuchtigkeit
    00:00 +17°C° 0 mm 5 m/S 748 mmHg 57%
    01:00 +17°C° 0 mm 6 m/S 748 mmHg 55%
    02:00 +16°C° 0 mm 6 m/S 748 mmHg 54%
    03:00 +16°C° 0 mm 7 m/S 748 mmHg 53%
    04:00 +16°C° 0 mm 7 m/S 749 mmHg 52%
    05:00 +16°C° 0 mm 7 m/S 749 mmHg 55%
    06:00 +15°C° 0 mm 7 m/S 749 mmHg 58%
    07:00 +15°C° 0 mm 8 m/S 749 mmHg 61%
    08:00 +15°C° 0 mm 8 m/S 749 mmHg 63%
    09:00 +15°C° 0 mm 8 m/S 749 mmHg 65%
    10:00 +15°C° 0 mm 9 m/S 750 mmHg 67%
    11:00 +16°C° 0 mm 9 m/S 750 mmHg 65%
    12:00 +16°C° 0 mm 9 m/S 750 mmHg 63%
    13:00 +17°C° 0 mm 9 m/S 750 mmHg 61%
    14:00 +17°C° 0 mm 9 m/S 750 mmHg 61%
    15:00 +17°C° 0 mm 8 m/S 750 mmHg 60%
    16:00 +17°C° 0 mm 8 m/S 750 mmHg 60%
    17:00 +17°C° 0 mm 8 m/S 750 mmHg 60%
    18:00 +16°C° 0 mm 8 m/S 750 mmHg 61%
    19:00 +16°C° 0 mm 7 m/S 750 mmHg 62%
    20:00 +15°C° 0 mm 7 m/S 750 mmHg 62%
    21:00 +15°C° 0 mm 7 m/S 750 mmHg 63%
    22:00 +14°C° 0 mm 7 m/S 751 mmHg 64%
    23:00 +14°C° 0 mm 6 m/S 751 mmHg 63%

    6 Juni, Samstag

    Zeit Temperatur Niederschläge Wind Luftdruck Luftfeuchtigkeit
    00:00 +14°C° 0 mm 6 m/S 751 mmHg 62%
    01:00 +14°C° 0 mm 6 m/S 751 mmHg 61%
    02:00 +14°C° 0 mm 6 m/S 751 mmHg 60%
    03:00 +14°C° 0 mm 5 m/S 751 mmHg 60%
    04:00 +14°C° 0 mm 5 m/S 751 mmHg 60%
    05:00 +14°C° 0 mm 6 m/S 751 mmHg 61%
    06:00 +14°C° 0 mm 6 m/S 751 mmHg 61%
    07:00 +14°C° 0 mm 6 m/S 751 mmHg 62%
    08:00 +15°C° 0 mm 6 m/S 751 mmHg 59%
    09:00 +16°C° 0 mm 6 m/S 752 mmHg 56%
    10:00 +17°C° 0 mm 6 m/S 752 mmHg 53%
    11:00 +19°C° 0 mm 6 m/S 752 mmHg 53%
    12:00 +19°C° 0 mm 5 m/S 752 mmHg 53%
    13:00 +20°C° 0 mm 5 m/S 752 mmHg 53%
    14:00 +21°C° 0 mm 5 m/S 752 mmHg 52%
    15:00 +21°C° 0 mm 5 m/S 752 mmHg 51%
    16:00 +22°C° 0 mm 5 m/S 752 mmHg 50%
    17:00 +21°C° 0 mm 5 m/S 752 mmHg 54%
    18:00 +20°C° 0 mm 4 m/S 752 mmHg 57%
    19:00 +19°C° 0 mm 4 m/S 752 mmHg 60%
    20:00 +18°C° 0 mm 4 m/S 752 mmHg 63%
    21:00 +15°C° 0 mm 4 m/S 753 mmHg 66%
    22:00 +13°C° 0 mm 3 m/S 753 mmHg 69%
    23:00 +13°C° 0 mm 3 m/S 753 mmHg 67%

    7 Juni, Sonntag

    Zeit Temperatur Niederschläge Wind Luftdruck Luftfeuchtigkeit
    00:00 +13°C° 0 mm 3 m/S 753 mmHg 65%
    01:00 +12°C° 0 mm 3 m/S 753 mmHg 63%
    02:00 +12°C° 0 mm 4 m/S 753 mmHg 65%
    03:00 +12°C° 0 mm 4 m/S 753 mmHg 67%
    04:00 +11°C° 0 mm 4 m/S 753 mmHg 69%
    05:00 +13°C° 0 mm 4 m/S 753 mmHg 65%
    06:00 +14°C° 0 mm 5 m/S 754 mmHg 61%
    07:00 +15°C° 0 mm 5 m/S 754 mmHg 57%
    08:00 +17°C° 0 mm 5 m/S 754 mmHg 52%
    09:00 +20°C° 0 mm 6 m/S 754 mmHg 47%
    10:00 +22°C° 0 mm 6 m/S 754 mmHg 42%
    11:00 +23°C° 0 mm 6 m/S 754 mmHg 40%
    12:00 +24°C° 0 mm 6 m/S 754 mmHg 38%
    13:00 +24°C° 0 mm 6 m/S 754 mmHg 36%
    14:00 +24°C° 0 mm 6 m/S 754 mmHg 38%
    15:00 +25°C° 0 mm 5 m/S 754 mmHg 40%
    16:00 +25°C° 0 mm 5 m/S 754 mmHg 42%
    17:00 +23°C° 0 mm 5 m/S 754 mmHg 47%
    18:00 +22°C° 0 mm 4 m/S 754 mmHg 52%
    19:00 +21°C° 0 mm 4 m/S 754 mmHg 57%
    20:00 +20°C° 0 mm 3 m/S 754 mmHg 57%
    21:00 +19°C° 0 mm 3 m/S 754 mmHg 57%
    22:00 +19°C° 0 mm 3 m/S 755 mmHg 57%
    23:00 +18°C° 0 mm 3 m/S 755 mmHg 60%

    8 Juni, Montag

    Zeit Temperatur Niederschläge Wind Luftdruck Luftfeuchtigkeit
    00:00 +17°C° 0 mm 3 m/S 755 mmHg 64%
    01:00 +16°C° 0 mm 3 m/S 755 mmHg 67%
    02:00 +15°C° 0 mm 4 m/S 755 mmHg 66%
    03:00 +14°C° 0 mm 4 m/S 755 mmHg 66%
    04:00 +14°C° 0 mm 4 m/S 755 mmHg 66%
    05:00 +15°C° 0 mm 5 m/S 755 mmHg 64%
    06:00 +16°C° 0 mm 5 m/S 755 mmHg 62%
    07:00 +19°C° 0 mm 6 m/S 756 mmHg 61%
    08:00 +21°C° 0 mm 6 m/S 756 mmHg 57%
    09:00 +23°C° 0 mm 6 m/S 756 mmHg 53%
    10:00 +24°C° 0 mm 6 m/S 756 mmHg 49%
    11:00 +26°C° 0 mm 6 m/S 756 mmHg 45%
    12:00 +27°C° 0 mm 6 m/S 756 mmHg 42%
    13:00 +28°C° 0 mm 6 m/S 756 mmHg 38%
    14:00 +28°C° 0 mm 5 m/S 756 mmHg 39%
    15:00 +28°C° 0 mm 5 m/S 756 mmHg 40%
    16:00 +28°C° 0 mm 4 m/S 756 mmHg 41%
    17:00 +27°C° 0 mm 4 m/S 756 mmHg 45%
    18:00 +26°C° 0 mm 3 m/S 756 mmHg 49%
    19:00 +26°C° 0 mm 3 m/S 756 mmHg 54%
    20:00 +24°C° 0 mm 3 m/S 756 mmHg 58%
    21:00 +21°C° 0 mm 3 m/S 756 mmHg 62%
    22:00 +19°C° 0 mm 4 m/S 756 mmHg 67%
    23:00 +19°C° 0 mm 4 m/S 756 mmHg 66%
    Mehr zeigen